DELTA 1 DEB, 3051

Orbit data source: Space-Track

DELTA 1 DEB, 3051 is space debris in SSO originally from a launch on Fri, 10 Nov 1967 UTC launched from the Air Force Western Test Range (AFWTR). Debris objects in space refer to the collection of defunct objects orbiting the Earth. Examples of debris include non-operational satellites, rocket bodies, and fragments generated from explosions, collisions, or faulty payload assembly.

Loading next visibility...
Identifier
3051, 1967-114C
Orbit
SSO
Country
Flag of USUS
Related business
Manufacturer
Unknown
Mission
Spacecraft
Bus & Motor
Unknown
Mass
Unknown
Launch date (UTC)
1967-11-10 (58 years ago)
Launch vehicle
Unknown
Launch site
Air Force Western Test Range (AFWTR)
Object type
Payload
Rocket body
Debris
Shape & HBR
Unknown shape, 0.1 m
Radar Cross Section
Small (<0.1 m²)

Expand to show TLE details & history
Last TLE update: 1 day ago

TLE from 1 day ago
0 DELTA 1 DEB
1 03051U 67114C   25346.21186083 -.00000006  00000-0  19971-3 0  9994
2 03051 101.1384 322.5165 0089663 134.3362 247.4323 12.62283483675672
Epoch: 2025-12-12T05:05Z
TLE epoch observation values (Epoch: 2025-12-12T05:05:04.775Z)
Latitude
20.42048°
Longitude
160.90691°
Altitude
1,443.143 km
Speed
7.129 km/s
True Right ascension
21h 13m 20s
True Declination
20° 19' 05"
Sunlit
Object was in daylight at epoch
Visualization orbit readout
Latitude
Unknown
Longitude
Unknown
Altitude
Unknown
Speed
Unknown
Apparent Right ascension
Unknown
Apparent Declination
Unknown
Sunlit
N/A
Visualization observer readout
Local Sidereal Time
05:22:30
Azimuth
Unknown
Elevation
Unknown
Doppler factor
Unknown
Orbital elements
Apogee altitude
1,480.869 km
Perigee altitude
1,341.189 km
Semi-major axis
7,789.166 km
Eccentricity
0.00897
Inclination
101.1384°
RAAN
322.5165°
Arg. of periapsis
134.3362°
True anomaly
246.48762°
Mean anomaly
247.4323°
Eccentric anomaly
246.95955°
Mean motion
3.15723 °/min
Orbital period
114.02 mins
BSTAR
0.00019971
Loading maneuver chart data...
Computing Atmospheric mass density...
Loading historical data...
Loading historical data...
Loading historical data...
Loading historical data...
Loading historical data...
Loading historical data...
Loading historical data...
Other satellites on launch #114 in the year 1967 (1967-11-10 UTC)

Documentation

Showing up to 5 results
|